Snowfall_Accumulation
nan nan nan nan nan nan nan nan nan nan nan nan nan nan nan nan nan 0.0 0.0 0.0 0.1 3.1 0.6 0.0 0.0 0.2 0.6 0.9 8.1 0.8 9.5 5.0 6.9 11.8 7.8 6.9 2.5 2.7 0.7 0.1 0.0 1.0 4.0 8.8 6.5 12.3 13.9 0.0 0.0 0.3 0.7 0.0 0.0 0.0
nan nan nan nan nan nan nan nan nan nan nan nan nan nan nan nan nan nan 0.0 0.0 0.0 1.5 1.4 0.0 0.0 0.0 0.0 0.0 0.7 0.8 1.7 0.3 2.2 6.3 5.3 3.4 5.4 3.5 0.5 3.7 0.1 2.3 1.1 3.3 1.2 1.6 0.0 0.0 0.0 0.0 0.0 0.0 0.0 0.0
nan nan nan nan nan nan nan nan nan nan nan nan nan nan nan nan nan nan 0.0 0.0 0.1 2.2 0.6 0.4 0.6 0.0 0.0 0.0 0.0 11.5 0.8 0.0 0.3 0.0 2.9 1.7 2.3 0.7 3.0 0.8 0.2 0.0 0.0 3.6 1.9 0.0 0.0 0.0 0.0 0.0 0.0 0.0 0.0 0.0
nan nan nan nan nan nan nan nan nan nan nan nan nan nan nan nan nan nan 0.0 0.0 0.1 1.3 7.2 1.5 0.0 0.1 0.0 0.0 0.0 0.0 0.0 0.0 0.0 0.3 6.7 6.0 4.8 0.4 0.9 0.2 0.5 0.1 0.0 0.0 0.0 0.0 0.0 0.0 0.0 0.0 0.0 0.0 0.0 0.0
nan nan nan nan nan nan nan nan nan nan nan nan nan nan nan nan nan nan 0.0 0.0 0.0 2.4 3.1 1.6 0.0 0.0 0.0 0.0 0.0 0.0 0.0 0.1 1.4 6.3 7.9 5.4 0.2 1.3 0.4 0.3 0.4 0.0 0.0 0.3 0.4 0.0 0.0 0.0 0.0 0.0 0.0 0.0 0.0 0.0
nan nan nan nan nan nan nan nan nan nan nan nan nan nan nan nan nan 0.0 9.3 0.0 0.0 0.0 7.7 6.0 0.2 0.0 0.0 0.0 0.0 0.0 0.0 0.4 0.9 3.3 2.9 0.9 0.0 0.8 3.9 1.0 0.0 0.0 0.0 0.0 0.0 0.0 0.0 0.0 0.0 0.0 0.0 0.0 0.0 0.0
nan nan nan nan nan nan nan nan nan nan nan nan nan nan nan nan 0.0 1.7 0.8 0.0 nan 0.0 6.5 3.2 1.0 0.1 0.0 0.1 0.3 1.1 0.3 1.4 1.2 1.6 2.3 0.4 0.3 1.0 2.0 1.0 0.0 0.0 0.0 0.0 0.0 0.0 0.0 0.0 0.1 0.0 0.0 0.0 0.0 0.0
nan nan nan nan nan nan nan nan nan nan nan nan nan nan nan nan nan 0.4 0.0 nan nan 0.6 1.2 5.2 2.0 0.8 0.0 1.4 2.0 0.2 2.2 2.0 2.5 1.2 1.0 0.6 0.3 0.9 2.6 0.0 0.0 0.0 0.0 0.0 0.0 0.0 0.0 0.0 0.0 0.0 0.0 0.0 0.0 0.0
nan nan nan nan nan nan nan nan nan nan nan nan nan nan 0.0 0.1 0.6 0.0 nan nan 0.0 1.4 5.8 3.1 1.6 7.4 0.0 1.1 0.7 0.9 1.1 8.0 1.6 3.8 1.4 0.6 0.9 2.6 0.0 0.0 0.0 0.0 0.0 0.0 0.0 0.0 0.3 0.8 0.0 0.0 0.0 0.0 0.0 0.0
nan nan nan nan nan nan nan nan nan nan nan nan 0.0 0.4 6.8 0.1 nan nan 0.2 2.7 4.4 3.0 4.4 2.2 0.1 2.1 0.3 0.3 2.5 3.0 4.5 2.7 4.4 1.6 0.4 2.0 0.3 0.0 0.0 0.0 0.0 0.0 0.0 0.1 0.0 0.0 0.0 0.0 0.0 0.0 0.0 0.0 0.0 0.0
nan nan nan nan nan nan nan nan nan nan nan 0.0 0.8 0.5 0.0 nan 0.0 0.6 4.7 3.8 0.9 1.9 0.3 0.3 0.0 0.2 0.0 1.6 1.9 0.6 1.7 1.0 4.3 0.6 1.7 1.9 1.2 1.0 1.0 0.7 0.3 0.3 0.0 0.0 0.0 0.0 0.0 0.0 0.0 0.0 0.0 0.0 0.0 0.0
nan nan nan nan nan nan nan nan nan 0.0 0.0 0.2 0.2 0.0 0.0 0.4 2.2 1.5 2.6 0.7 0.3 0.2 0.4 0.4 0.5 0.4 0.6 0.0 1.5 1.2 0.9 1.7 0.6 0.4 4.7 1.7 1.3 0.0 0.0 0.0 0.0 0.0 0.0 0.0 0.0 0.0 0.0 0.0 0.0 0.0 0.0 0.0 0.0 0.0
nan nan nan nan nan nan nan nan nan nan nan 0.0 0.5 0.7 1.2 2.0 29.9 1.3 3.0 1.6 3.3 0.2 0.4 0.3 3.9 0.8 0.6 0.5 2.4 2.2 6.3 4.6 0.4 10.6 1.0 1.0 0.5 0.0 0.0 0.0 0.0 0.0 0.0 0.0 0.0 0.0 0.0 0.0 0.0 0.1 0.3 0.2 0.3 0.3
nan nan nan nan nan nan nan nan nan 0.0 0.0 1.1 1.0 31.2 4.0 1.2 0.5 0.3 0.4 0.7 0.2 0.1 0.4 1.0 2.1 2.6 1.6 2.7 1.4 2.9 0.6 0.8 5.5 4.2 1.9 1.1 0.3 0.1 0.2 0.2 0.1 0.1 0.1 0.2 0.1 0.0 0.1 0.2 0.2 0.2 1.9 2.4 2.1 1.8
nan nan nan nan nan nan nan nan nan 0.0 0.4 2.0 0.7 13.1 2.3 0.3 0.3 0.4 0.2 0.2 0.1 0.2 0.6 2.0 0.9 0.6 1.1 1.9 0.3 0.4 3.2 2.6 1.5 4.0 1.4 0.8 0.2 0.3 0.5 0.4 0.8 2.2 2.5 1.6 1.3 2.8 4.2 3.3 2.4 3.7 3.3 2.2 1.7 4.4
nan nan 0.0 nan nan nan nan nan 0.0 0.1 1.4 0.8 0.3 1.0 0.4 1.6 3.7 2.3 0.7 0.9 0.1 0.3 0.7 1.3 0.8 1.2 1.2 0.8 0.4 0.6 0.6 3.4 2.9 1.6 0.8 0.4 0.1 0.2 0.3 0.3 0.5 0.8 1.1 2.0 1.3 2.1 4.4 7.2 7.7 7.5 6.9 6.7 8.0 6.9
nan 0.2 nan nan nan nan nan 0.0 0.0 5.0 2.1 0.4 5.8 0.5 1.1 0.7 1.7 0.9 0.6 0.5 0.1 1.0 4.0 1.2 2.7 0.3 0.5 1.8 0.6 1.8 4.7 3.3 1.3 0.8 0.5 0.1 0.3 0.3 0.2 0.2 1.4 0.3 1.2 1.7 2.1 3.0 4.3 4.9 5.5 4.8 6.5 7.0 4.6 4.9
0.3 0.0 nan nan nan nan 0.3 0.1 1.3 1.2 1.0 1.0 6.6 2.5 0.6 0.6 1.6 1.2 0.4 0.3 0.6 0.9 1.0 1.4 1.7 1.0 3.4 1.5 3.6 3.0 1.8 1.3 0.9 1.0 0.7 0.3 0.1 0.3 0.2 0.2 0.3 0.5 0.8 3.2 2.8 3.8 3.9 3.3 2.7 4.1 3.0 3.4 4.2 4.8
0.3 0.1 nan nan 0.0 2.0 2.5 0.7 0.4 2.2 1.7 0.6 0.5 0.4 0.4 1.0 0.7 0.4 0.5 0.4 0.5 0.3 2.6 2.1 0.9 1.4 2.0 2.0 2.2 1.7 1.4 1.0 1.7 2.2 1.7 0.6 0.4 0.8 1.0 0.7 0.5 1.8 2.2 2.7 1.8 3.1 2.8 2.0 2.1 2.3 2.9 2.6 2.7 4.1
nan nan nan nan nan 6.5 3.5 1.8 0.2 0.5 0.9 0.9 0.3 0.5 0.5 0.9 0.8 1.9 1.2 0.6 0.6 1.6 2.3 2.4 1.8 3.1 2.8 1.9 2.3 1.9 1.5 1.2 1.1 2.5 2.7 2.8 2.6 1.0 0.6 1.3 2.5 1.3 2.2 1.3 2.4 1.1 3.1 2.9 2.9 1.4 1.3 2.1 3.6 5.5
nan nan nan 0.6 2.3 2.6 1.1 1.0 0.6 0.3 0.4 0.6 0.4 0.2 1.8 0.6 1.2 2.4 1.5 0.3 3.3 2.2 2.2 1.6 4.6 2.5 1.5 3.4 1.8 1.1 1.1 0.6 1.2 1.7 1.9 5.3 2.7 1.2 1.5 1.5 1.0 1.1 1.0 2.2 3.1 4.2 2.2 2.6 2.3 1.7 6.3 7.9 4.6 4.0
0.2 nan 0.5 0.4 3.9 3.3 4.8 0.1 0.2 0.4 0.8 0.3 0.4 0.2 1.7 6.5 5.9 2.8 0.7 3.3 3.3 3.4 1.9 2.8 3.1 2.5 1.8 1.7 2.6 0.8 1.3 0.4 0.3 0.8 0.4 0.6 2.8 1.7 1.9 1.7 1.1 2.0 1.8 2.4 1.5 4.2 3.0 1.6 1.9 2.3 4.9 7.4 2.3 3.0
nan 1.5 1.9 0.9 5.1 8.2 16.4 0.1 0.4 0.2 2.2 0.9 0.4 0.8 2.2 2.0 1.4 0.3 5.8 2.4 5.1 3.7 2.5 2.0 1.4 2.5 2.8 2.0 1.2 0.5 0.9 0.8 2.7 3.5 2.5 2.1 1.5 1.4 1.3 1.9 1.0 2.8 2.8 2.1 1.1 2.0 2.9 1.7 2.4 6.9 4.4 4.9 5.2 12.0
nan 4.4 8.0 4.9 4.0 14.3 0.4 5.0 0.7 1.0 0.5 1.2 1.5 2.3 0.4 1.9 0.7 4.0 6.2 6.7 6.2 1.4 1.7 1.5 1.4 3.3 3.3 2.6 4.3 4.7 4.7 2.5 2.8 2.9 2.6 2.6 2.0 2.5 1.4 1.9 1.1 1.1 1.3 1.3 1.3 2.4 2.7 7.4 5.0 2.8 8.2 15.4 18.0 16.8
25.0 27.4 8.3 36.1 3.3 10.6 6.9 3.9 1.6 1.3 6.5 5.4 4.9 6.0 15.1 2.8 13.2 10.7 4.6 8.6 5.0 5.1 4.7 3.1 2.8 2.2 2.6 3.8 4.0 5.3 4.5 4.9 6.0 6.4 5.9 3.7 2.9 2.9 2.9 1.8 2.4 2.0 1.5 4.8 8.3 10.0 10.3 9.7 10.3 9.3 5.7 17.8 6.3 7.3
40.2 14.1 27.4 5.4 12.9 7.1 5.8 10.0 10.6 10.0 5.3 6.6 5.7 3.0 2.0 6.1 8.8 14.7 9.2 11.7 10.4 7.6 19.4 15.2 10.0 4.2 4.3 3.5 3.8 3.9 4.8 4.5 4.3 5.3 7.6 5.8 6.8 7.6 9.0 8.0 6.7 6.2 2.9 4.1 8.5 13.7 9.9 10.8 12.1 5.8 11.4 5.0 6.5 14.8
34.3 17.1 1.4 0.3 0.5 0.3 8.1 5.5 1.2 4.4 7.8 10.9 6.1 7.3 9.1 19.3 16.3 8.8 5.1 4.7 5.2 7.4 4.2 3.9 4.1 4.5 5.1 4.4 3.9 4.1 3.3 3.2 3.4 6.5 5.5 6.5 6.8 7.6 8.9 14.0 10.4 7.3 4.3 5.6 7.1 14.3 14.9 14.0 14.6 9.5 12.4 12.1 12.8 15.0
5.0 2.3 12.0 4.7 7.5 0.8 7.0 4.7 7.1 8.8 4.5 2.2 7.0 12.2 13.5 13.1 11.5 9.3 6.9 6.7 7.7 2.9 2.4 2.3 2.0 2.5 3.0 4.0 4.9 5.6 4.5 4.7 5.7 5.4 4.1 3.8 4.5 9.5 9.4 8.2 7.3 7.2 8.7 14.3 14.8 16.0 11.2 15.7 16.9 16.4 14.8 15.8 19.7 14.6
7.2 2.5 3.0 15.4 6.7 5.0 9.9 10.7 7.9 3.1 1.1 3.1 14.7 11.5 9.7 6.1 12.5 9.4 8.0 7.0 6.0 5.4 5.9 7.2 10.2 9.9 5.5 4.0 6.9 5.1 7.5 8.8 7.0 10.6 12.1 15.2 13.1 12.5 8.1 9.0 9.2 11.2 11.0 12.4 8.0 9.8 11.6 13.8 15.0 16.3 12.7 18.5 17.0 18.8
6.5 1.7 7.3 9.1 12.5 8.8 18.1 10.6 13.7 10.8 1.6 4.5 2.3 2.6 3.4 10.2 15.7 8.6 9.3 7.9 9.8 19.8 26.9 21.6 20.0 17.4 26.7 19.7 17.3 11.6 10.9 13.9 12.9 19.9 22.9 18.0 16.1 14.2 15.5 16.2 15.0 13.8 13.8 24.3 18.3 11.9 9.8 17.0 14.3 22.6 20.4 19.4 19.6 22.3
1.7 6.2 9.2 5.5 12.7 20.5 18.6 17.8 18.1 9.8 9.6 15.5 16.6 18.5 14.4 11.8 14.7 9.5 7.9 11.2 11.3 29.9 30.9 33.3 32.3 30.9 27.1 19.3 28.2 26.4 20.5 25.8 12.5 9.0 8.4 12.6 16.9 20.2 19.4 16.6 16.0 17.2 17.9 17.7 22.8 21.0 23.4 27.4 24.8 22.4 17.6 14.5 16.6 17.5
9.9 15.4 19.5 11.9 15.5 24.9 13.4 26.5 21.1 18.7 24.5 23.6 28.7 23.6 29.1 25.7 18.1 14.5 15.5 21.5 25.4 27.7 9.1 24.0 33.4 18.2 16.7 15.0 22.3 17.7 10.1 13.4 13.9 14.2 12.4 17.6 20.3 22.8 14.0 11.4 22.3 20.4 16.8 19.0 17.3 19.7 17.5 25.4 27.7 28.1 22.8 19.5 18.2 16.8
25.5 18.4 13.8 13.3 26.4 15.2 18.1 20.8 5.7 20.4 18.9 23.5 27.1 24.5 24.6 21.9 17.7 20.9 9.0 20.0 23.5 25.0 22.0 28.1 29.0 32.3 19.2 16.3 15.6 16.9 12.1 15.7 14.3 10.6 9.3 9.3 9.3 10.6 17.8 23.8 26.4 21.8 13.6 18.9 20.7 19.5 17.5 15.1 19.5 21.6 24.1 28.0 24.7 20.6
Water_Equivalent
nan nan nan nan nan nan nan nan nan nan nan nan nan nan nan nan nan 0.00 0.00 0.00 0.03 0.73 0.19 0.00 0.00 0.05 0.18 0.24 1.47 0.20 1.49 1.06 1.64 2.18 1.41 1.33 0.54 0.41 0.16 0.01 0.01 0.25 0.80 1.61 1.19 1.99 1.64 0.00 0.00 0.04 0.10 0.00 0.00 0.00
nan nan nan nan nan nan nan nan nan nan nan nan nan nan nan nan nan nan 0.00 0.00 0.00 0.43 0.34 0.00 0.00 0.00 0.00 0.00 0.17 0.14 0.28 0.05 0.53 1.19 0.96 0.70 1.03 0.70 0.09 0.57 0.02 0.44 0.19 0.58 0.20 0.40 0.00 0.00 0.00 0.00 0.00 0.00 0.00 0.00
nan nan nan nan nan nan nan nan nan nan nan nan nan nan nan nan nan nan 0.00 0.00 0.02 0.61 0.17 0.10 0.18 0.00 0.00 0.00 0.00 2.00 0.20 0.01 0.06 0.01 0.56 0.36 0.35 0.16 0.61 0.19 0.04 0.00 0.01 0.55 0.32 0.00 0.01 0.00 0.00 0.00 0.00 0.00 0.00 0.00
nan nan nan nan nan nan nan nan nan nan nan nan nan nan nan nan nan nan 0.00 0.00 0.02 0.36 1.37 0.32 0.00 0.02 0.00 0.00 0.00 0.00 0.00 0.00 0.00 0.06 1.23 1.08 0.82 0.07 0.20 0.05 0.12 0.02 0.01 0.00 0.01 0.00 0.00 0.00 0.00 0.00 0.00 0.00 0.00 0.00
nan nan nan nan nan nan nan nan nan nan nan nan nan nan nan nan nan nan 0.00 0.00 0.00 0.43 0.65 0.39 0.00 0.00 0.00 0.00 0.00 0.00 0.00 0.04 0.29 1.12 1.49 0.95 0.05 0.24 0.08 0.07 0.10 0.00 0.00 0.10 0.12 0.00 0.00 0.00 0.00 0.00 0.00 0.00 0.00 0.00
nan nan nan nan nan nan nan nan nan nan nan nan nan nan nan nan nan 0.00 3.47 0.00 0.00 0.00 1.39 1.13 0.05 0.01 0.01 0.01 0.00 0.00 0.00 0.11 0.22 0.65 0.56 0.18 0.00 0.13 0.71 0.21 0.00 0.00 0.00 0.00 0.00 0.00 0.00 0.00 0.00 0.00 0.00 0.00 0.00 0.00
nan nan nan nan nan nan nan nan nan nan nan nan nan nan nan nan 0.00 0.55 0.18 0.00 nan 0.00 1.28 0.62 0.26 0.02 0.00 0.02 0.09 0.33 0.08 0.40 0.28 0.35 0.42 0.09 0.04 0.17 0.37 0.19 0.00 0.00 0.00 0.00 0.00 0.00 0.00 0.00 0.03 0.00 0.00 0.00 0.00 0.00
nan nan nan nan nan nan nan nan nan nan nan nan nan nan nan nan nan 0.10 0.00 nan nan 0.16 0.27 1.12 0.49 0.25 0.00 0.33 0.47 0.04 0.51 0.47 0.56 0.25 0.19 0.11 0.07 0.18 0.42 0.00 0.00 0.00 0.00 0.00 0.00 0.00 0.00 0.00 0.00 0.00 0.00 0.00 0.00 0.00
nan nan nan nan nan nan nan nan nan nan nan nan nan nan 0.00 0.05 0.21 0.00 nan nan 0.00 0.32 1.16 0.74 0.38 1.74 0.00 0.21 0.16 0.22 0.25 1.44 0.32 0.72 0.28 0.12 0.17 0.43 0.00 0.00 0.00 0.00 0.00 0.00 0.00 0.00 0.06 0.12 0.00 0.00 0.00 0.00 0.00 0.00
nan nan nan nan nan nan nan nan nan nan nan nan 0.00 0.15 2.58 0.04 nan nan 0.09 0.81 1.04 0.68 0.86 0.46 0.02 0.50 0.09 0.09 0.55 0.69 0.85 0.50 0.80 0.31 0.09 0.38 0.06 0.00 0.00 0.00 0.00 0.00 0.00 0.01 0.00 0.02 0.00 0.00 0.00 0.00 0.00 0.00 0.00 0.00
nan nan nan nan nan nan nan nan nan nan nan 0.01 0.28 0.20 0.00 nan 0.01 0.15 1.38 0.85 0.22 0.37 0.06 0.08 0.00 0.05 0.00 0.39 0.44 0.13 0.41 0.25 0.77 0.10 0.32 0.32 0.22 0.19 0.19 0.14 0.10 0.06 0.01 0.00 0.00 0.00 0.00 0.00 0.00 0.00 0.00 0.00 0.00 0.00
nan nan nan nan nan nan nan nan nan 0.00 0.00 0.05 0.04 0.00 0.00 0.10 0.59 0.35 0.77 0.21 0.07 0.05 0.11 0.12 0.14 0.07 0.14 0.00 0.32 0.30 0.19 0.35 0.08 0.08 0.96 0.35 0.24 0.01 0.00 0.00 0.00 0.00 0.00 0.00 0.00 0.00 0.00 0.00 0.00 0.00 0.00 0.00 0.00 0.00
nan nan nan nan nan nan nan nan nan nan nan 0.00 0.13 0.14 0.31 0.67 5.46 0.30 0.74 0.33 1.04 0.07 0.12 0.08 1.13 0.19 0.14 0.09 0.46 0.44 1.28 1.15 0.10 2.63 0.22 0.19 0.09 0.01 0.00 0.00 0.00 0.00 0.00 0.00 0.00 0.00 0.00 0.00 0.00 0.02 0.07 0.05 0.08 0.08
nan nan nan nan nan nan nan nan nan 0.00 0.01 0.25 0.18 5.00 1.32 0.41 0.17 0.10 0.10 0.14 0.06 0.05 0.09 0.21 0.45 0.48 0.30 0.49 0.29 0.60 0.16 0.22 1.43 0.84 0.41 0.22 0.07 0.03 0.04 0.04 0.03 0.04 0.01 0.04 0.02 0.00 0.02 0.04 0.04 0.06 0.54 0.63 0.46 0.37
nan nan nan nan nan nan nan nan nan 0.00 0.10 0.48 0.18 2.70 0.76 0.13 0.13 0.15 0.10 0.07 0.03 0.06 0.16 0.50 0.24 0.13 0.28 0.53 0.12 0.10 0.96 0.84 0.42 0.71 0.31 0.21 0.04 0.08 0.09 0.09 0.16 0.45 0.58 0.35 0.30 0.71 1.05 0.73 0.45 0.71 0.69 0.46 0.34 0.93
nan nan 0.00 nan nan nan nan nan 0.00 0.03 0.34 0.17 0.06 0.27 0.14 0.52 1.42 0.90 0.28 0.35 0.05 0.09 0.19 0.35 0.20 0.25 0.33 0.22 0.08 0.22 0.12 0.70 0.56 0.35 0.20 0.10 0.02 0.03 0.05 0.07 0.10 0.16 0.23 0.41 0.27 0.40 0.90 1.45 1.54 1.38 1.37 1.29 1.73 1.46
nan 0.03 nan nan nan nan nan 0.01 0.00 0.77 0.36 0.05 1.87 0.19 0.35 0.23 0.63 0.33 0.18 0.14 0.02 0.28 1.31 0.30 0.54 0.04 0.15 0.37 0.09 0.32 0.98 0.61 0.30 0.21 0.13 0.02 0.07 0.05 0.05 0.05 0.31 0.07 0.27 0.36 0.42 0.58 0.82 0.95 1.05 0.83 1.06 1.21 0.83 0.89
0.05 0.00 nan nan nan nan 0.08 0.01 0.36 0.29 0.13 0.24 1.75 0.77 0.22 0.21 0.48 0.36 0.16 0.10 0.18 0.23 0.25 0.22 0.31 0.16 0.84 0.21 0.74 0.59 0.40 0.31 0.19 0.23 0.19 0.09 0.03 0.06 0.03 0.04 0.06 0.10 0.16 0.64 0.55 0.73 0.74 0.60 0.46 0.76 0.53 0.60 0.72 0.81
0.05 0.02 nan nan 0.01 0.37 0.64 0.19 0.08 0.48 0.52 0.20 0.19 0.14 0.14 0.35 0.24 0.16 0.20 0.16 0.15 0.10 0.53 0.39 0.14 0.31 0.46 0.39 0.51 0.43 0.37 0.24 0.37 0.54 0.42 0.15 0.10 0.19 0.23 0.14 0.10 0.34 0.41 0.51 0.34 0.62 0.57 0.36 0.39 0.46 0.56 0.52 0.53 0.76
nan nan nan nan nan 1.30 0.66 0.44 0.04 0.10 0.25 0.28 0.11 0.16 0.16 0.28 0.25 0.77 0.47 0.22 0.17 0.37 0.47 0.44 0.37 0.61 0.55 0.40 0.48 0.42 0.35 0.30 0.24 0.50 0.61 0.68 0.66 0.22 0.15 0.27 0.55 0.28 0.45 0.25 0.51 0.26 0.61 0.57 0.57 0.32 0.29 0.43 0.73 1.01
nan nan nan 0.10 0.35 0.43 0.23 0.26 0.13 0.09 0.13 0.19 0.13 0.08 0.51 0.17 0.34 0.71 0.44 0.10 0.88 0.51 0.43 0.36 1.01 0.57 0.29 0.73 0.40 0.25 0.24 0.13 0.28 0.30 0.38 0.84 0.67 0.34 0.40 0.41 0.28 0.30 0.25 0.46 0.72 0.85 0.48 0.56 0.51 0.40 1.82 2.32 1.32 1.04
0.03 nan 0.07 0.07 0.75 0.64 0.98 0.03 0.07 0.11 0.21 0.13 0.14 0.08 0.51 1.98 1.77 0.82 0.16 0.73 0.61 0.64 0.41 0.55 0.61 0.53 0.38 0.31 0.52 0.12 0.20 0.07 0.05 0.19 0.08 0.14 0.58 0.40 0.45 0.42 0.29 0.51 0.44 0.61 0.38 0.97 0.65 0.37 0.48 0.61 1.35 2.22 0.68 0.85
nan 0.23 0.33 0.15 0.96 1.34 2.22 0.03 0.09 0.06 0.56 0.30 0.14 0.24 0.65 0.59 0.35 0.04 1.18 0.41 0.83 0.76 0.52 0.40 0.25 0.39 0.47 0.32 0.16 0.07 0.15 0.11 0.48 0.61 0.52 0.45 0.35 0.38 0.33 0.41 0.29 0.77 0.68 0.46 0.27 0.47 0.67 0.52 0.69 2.02 1.30 1.39 1.42 3.20
nan 0.62 1.65 1.09 0.71 2.86 0.15 1.40 0.14 0.19 0.15 0.35 0.39 0.54 0.10 0.39 0.15 0.79 1.03 1.02 0.93 0.31 0.32 0.23 0.32 0.62 0.56 0.33 0.62 0.65 0.70 0.40 0.43 0.49 0.44 0.44 0.40 0.51 0.30 0.37 0.29 0.28 0.29 0.29 0.33 0.63 0.69 2.09 1.61 0.77 2.28 4.38 5.22 4.34
3.54 4.28 2.09 4.13 0.84 2.47 1.75 1.10 0.36 0.29 1.28 1.22 0.90 1.14 2.56 0.50 1.84 1.42 0.60 1.07 0.71 0.78 0.72 0.56 0.46 0.40 0.42 0.62 0.60 0.69 0.49 0.62 0.77 0.78 0.78 0.55 0.49 0.53 0.52 0.36 0.44 0.38 0.34 1.37 2.10 2.70 2.73 2.60 2.81 2.57 1.49 4.91 1.49 1.85
4.99 3.83 3.55 1.41 2.84 1.56 1.08 1.76 1.84 2.02 1.08 1.32 1.22 0.63 0.50 1.24 1.35 1.71 1.00 1.48 1.54 1.00 3.41 2.61 1.57 0.63 0.54 0.50 0.52 0.46 0.58 0.59 0.65 0.62 0.84 0.68 0.80 1.22 1.51 1.28 1.05 0.99 0.53 1.03 2.09 3.64 2.55 2.85 3.21 1.48 2.96 1.39 2.01 4.02
4.26 3.65 0.31 0.08 0.13 0.08 1.79 1.56 0.31 1.03 1.38 1.82 1.12 1.46 1.77 2.76 2.30 1.01 0.60 0.62 0.61 0.93 0.63 0.60 0.62 0.61 0.64 0.57 0.54 0.58 0.50 0.52 0.45 0.73 0.72 0.72 0.73 0.79 1.22 2.28 1.39 1.01 0.66 1.18 1.86 4.10 4.10 3.82 3.99 2.44 3.16 3.36 3.62 4.05
0.97 0.48 1.72 1.28 1.85 0.25 1.47 0.99 1.32 1.54 0.93 0.40 1.16 1.83 2.19 1.99 1.27 1.05 0.78 0.84 1.03 0.47 0.40 0.37 0.34 0.37 0.42 0.52 0.65 0.79 0.80 0.82 1.00 0.81 0.64 0.58 0.63 1.25 1.21 1.12 1.03 2.38 1.43 2.93 3.52 3.84 2.81 4.28 4.59 4.53 3.89 3.99 4.47 3.81
1.32 0.64 0.74 1.90 1.11 1.06 1.57 1.80 1.41 0.59 0.26 0.71 2.83 1.53 1.28 0.68 1.52 1.05 0.86 0.81 0.94 0.85 0.87 1.09 1.43 1.83 0.92 0.71 1.16 0.87 1.26 1.52 1.27 1.59 2.04 2.18 2.16 2.00 1.24 1.47 1.59 2.12 1.99 2.25 2.62 2.65 2.57 3.08 3.58 3.97 3.77 4.61 4.32 4.72
1.10 0.49 1.45 1.48 1.45 1.19 2.68 1.70 2.28 1.76 0.24 0.69 0.39 0.35 0.40 1.08 1.68 1.14 1.16 1.04 1.35 3.24 4.90 3.79 3.46 3.23 4.74 3.28 2.70 1.94 2.10 2.86 2.45 3.44 3.72 2.71 2.36 2.19 2.59 3.16 3.04 2.87 2.86 5.55 3.38 1.76 2.78 3.53 3.79 4.95 4.19 3.70 3.99 4.30
0.46 1.66 2.00 1.14 1.87 3.53 3.17 3.54 3.57 1.77 1.89 3.07 3.24 3.41 2.17 1.48 1.79 1.17 0.95 1.47 1.54 5.66 6.04 6.30 6.08 6.31 4.90 3.03 5.06 4.51 3.02 4.68 1.91 1.38 1.37 2.12 2.65 3.61 3.79 3.29 3.34 3.75 3.95 3.71 4.74 3.53 3.46 4.23 4.39 4.33 3.10 2.65 2.72 2.77
2.19 3.58 2.92 1.61 2.43 4.62 2.48 5.70 4.41 3.81 4.90 4.40 5.16 4.33 4.96 4.02 2.32 1.72 1.86 3.10 4.02 4.67 2.73 3.80 5.85 2.57 2.49 2.28 4.00 3.09 3.17 1.84 1.88 1.89 1.97 2.62 3.30 3.83 2.40 1.96 4.53 4.47 3.57 3.94 3.31 3.53 2.99 3.93 3.97 4.18 3.51 3.10 2.83 2.49
5.42 3.84 2.55 2.25 4.81 2.77 3.11 4.08 1.08 3.68 3.20 3.81 4.43 3.84 3.97 3.17 2.05 2.55 0.99 2.73 3.63 3.82 3.13 4.42 4.69 5.61 2.91 2.55 2.29 2.47 2.88 2.13 2.68 3.49 3.09 3.08 3.07 2.96 2.71 4.03 4.84 3.74 2.26 3.15 3.51 3.15 2.79 2.18 2.44 2.84 2.97 3.37 3.14 2.80
SL_Ratio
nan nan nan nan nan nan nan nan nan nan nan nan nan nan nan nan nan nan nan nan 4.0 4.2 3.4 nan nan 4.0 3.5 4.0 5.5 3.9 6.4 4.7 4.2 5.4 5.5 5.2 4.6 6.7 4.6 5.5 3.7 4.1 5.0 5.5 5.4 6.2 8.5 nan nan 7.4 6.6 6.0 nan nan
nan nan nan nan nan nan nan nan nan nan nan nan nan nan nan nan nan nan nan nan nan 3.5 4.0 nan nan nan nan nan 3.9 5.6 6.1 5.1 4.1 5.3 5.5 4.9 5.2 4.9 5.7 6.5 5.8 5.2 5.9 5.7 6.0 4.0 nan nan nan nan nan nan nan nan
nan nan nan nan nan nan nan nan nan nan nan nan nan nan nan nan nan nan nan nan 3.2 3.6 3.8 4.3 3.2 nan nan nan nan 5.8 3.9 3.8 4.4 2.8 5.2 4.8 6.4 4.4 4.8 4.4 4.9 6.4 5.3 6.4 5.9 nan 4.8 nan nan nan nan nan nan nan
nan nan nan nan nan nan nan nan nan nan nan nan nan nan nan nan nan nan nan nan 2.6 3.6 5.2 4.6 nan 3.2 nan nan nan nan nan 5.0 5.0 4.8 5.4 5.6 5.9 5.3 4.6 4.0 4.3 3.2 2.4 4.0 3.2 nan nan nan nan nan nan nan nan nan
nan nan nan nan nan nan nan nan nan nan nan nan nan nan nan nan nan nan nan nan nan 5.7 4.8 4.0 nan nan nan nan nan nan nan 3.6 4.7 5.6 5.3 5.6 3.9 5.5 4.7 4.2 3.7 3.3 5.0 2.9 3.0 nan 6.0 5.7 nan nan nan nan nan nan
nan nan nan nan nan nan nan nan nan nan nan nan nan nan nan nan nan nan 2.7 0.0 nan 2.5 5.5 5.3 3.8 3.4 3.0 2.9 0.0 2.5 nan 3.5 4.2 5.2 5.2 4.7 10.0 5.8 5.6 5.0 nan nan nan nan nan nan nan nan nan nan nan nan nan nan
nan nan nan nan nan nan nan nan nan nan nan nan nan nan nan nan nan 3.1 4.2 2.5 nan nan 5.1 5.2 4.0 3.8 3.3 3.3 3.5 3.5 3.6 3.5 4.2 4.5 5.3 4.9 5.8 5.8 5.3 5.4 nan nan nan nan nan nan 2.9 nan 2.5 nan nan nan nan nan
nan nan nan nan nan nan nan nan nan nan nan nan nan nan nan nan nan 3.6 nan nan nan 4.1 4.6 4.7 4.1 3.2 nan 4.1 4.3 3.6 4.3 4.2 4.5 4.8 5.2 5.4 4.5 5.2 6.1 nan nan nan nan nan nan nan nan nan nan nan nan nan nan nan
nan nan nan nan nan nan nan nan nan nan nan nan nan nan nan 2.5 2.6 2.5 nan nan nan 4.3 5.0 4.3 4.3 4.3 5.0 5.3 4.2 4.3 4.5 5.5 5.1 5.3 5.0 4.9 5.2 6.1 4.3 10.0 nan nan nan nan nan nan 6.0 6.5 6.7 nan nan nan nan nan
nan nan nan nan nan nan nan nan nan nan nan nan nan 2.5 2.6 2.6 nan nan 2.6 3.4 4.2 4.4 5.2 4.8 5.3 4.3 3.8 3.8 4.6 4.4 5.2 5.5 5.6 5.1 5.1 5.2 5.0 nan nan 5.3 nan 6.0 6.4 6.2 3.3 2.7 0.0 0.0 nan nan nan nan nan nan
nan nan nan nan nan nan nan nan nan nan nan 2.4 2.8 2.6 nan nan 5.6 4.1 3.4 4.5 3.9 5.3 4.2 3.6 nan 3.2 nan 4.2 4.3 4.8 4.1 4.1 5.5 5.4 5.4 5.9 5.3 5.4 5.3 5.0 3.6 5.3 5.6 nan nan nan nan nan 0.0 nan nan nan nan nan
nan nan nan nan nan nan nan nan nan nan 5.0 4.2 5.5 nan nan 3.5 3.7 4.4 3.4 3.1 4.9 4.2 3.5 3.2 3.4 5.2 4.3 6.4 4.8 4.1 5.1 4.9 7.4 5.5 4.9 4.9 5.1 2.7 10.0 2.7 nan nan nan nan nan nan nan nan nan nan 0.0 nan nan 3.3
nan nan nan nan nan nan nan nan nan nan nan nan 3.9 4.8 3.8 3.0 5.5 4.3 4.0 4.8 3.2 2.7 3.2 3.7 3.5 4.4 4.5 5.5 5.2 5.0 4.9 4.0 4.4 4.0 4.4 5.3 5.7 2.8 3.3 nan nan nan nan 3.3 nan nan nan nan nan 3.9 4.4 4.2 3.8 4.3
nan nan nan nan nan nan nan nan nan 0.0 5.5 4.4 5.5 6.2 3.0 2.9 3.1 2.6 4.0 4.9 2.8 3.1 4.2 4.6 4.8 5.4 5.4 5.4 4.8 4.8 3.7 3.6 3.8 5.0 4.8 4.8 5.0 3.9 4.4 4.3 3.8 4.0 4.0 4.2 3.8 3.8 3.1 3.9 4.6 3.7 3.5 3.8 4.6 4.9
nan nan nan nan nan nan nan nan nan nan 3.8 4.2 4.1 4.9 3.1 2.6 2.5 2.6 2.5 2.5 2.5 3.4 3.6 3.9 3.9 4.5 3.8 3.5 2.8 3.7 3.3 3.1 3.6 5.6 4.5 3.8 4.2 4.2 4.8 4.9 5.0 4.8 4.4 4.5 4.5 4.0 4.0 4.6 5.3 5.2 4.8 4.8 5.1 4.8
nan nan nan nan nan nan nan nan nan 4.9 4.3 4.7 5.2 3.7 2.7 3.1 2.6 2.5 2.6 2.5 3.0 3.5 3.7 3.8 4.1 4.7 3.7 3.6 4.7 2.9 4.9 4.8 5.2 4.5 4.0 3.7 4.7 4.9 5.2 4.8 4.7 4.9 4.9 4.9 4.8 5.2 4.9 5.0 5.0 5.5 5.1 5.2 4.6 4.7
nan 6.0 nan nan nan nan nan 5.9 7.5 6.5 5.9 7.3 3.1 2.7 3.3 2.9 2.8 2.7 3.5 3.5 2.6 3.7 3.1 4.1 5.0 6.4 3.5 4.7 6.7 5.5 4.9 5.4 4.5 4.0 3.7 4.9 5.2 5.0 4.0 4.2 4.4 4.3 4.5 4.7 4.9 5.1 5.2 5.2 5.2 5.8 6.2 5.8 5.6 5.5
5.9 5.0 nan nan nan nan 3.6 6.6 3.7 4.2 7.6 4.1 3.8 3.2 2.7 2.7 3.4 3.4 2.6 2.5 3.4 4.0 4.1 6.3 5.4 6.5 4.0 7.1 4.9 5.0 4.4 4.1 4.6 4.3 3.9 3.7 4.4 4.3 4.5 4.8 4.6 5.1 4.9 5.0 5.2 5.2 5.3 5.6 5.8 5.4 5.7 5.6 5.9 5.9
6.1 5.7 nan nan 5.6 5.5 3.9 4.0 4.5 4.5 3.3 2.8 2.9 2.6 2.6 2.9 3.0 2.7 2.5 2.5 3.5 2.9 5.0 5.5 6.5 4.4 4.4 5.0 4.4 4.0 3.8 4.2 4.6 4.1 4.0 4.1 3.9 4.2 4.4 4.7 4.8 5.2 5.3 5.3 5.2 4.9 4.9 5.6 5.4 5.0 5.2 5.0 5.2 5.3
nan nan nan nan nan 5.0 5.3 4.1 5.3 5.7 3.6 3.2 2.7 2.9 2.9 3.2 3.3 2.5 2.5 3.0 3.7 4.2 5.0 5.6 4.9 5.0 5.1 4.8 4.9 4.4 4.4 4.0 4.4 4.9 4.4 4.2 3.9 4.6 4.0 4.7 4.6 4.8 4.8 5.1 4.6 4.3 5.1 5.1 5.2 4.4 4.3 4.8 4.9 5.4
nan nan nan 5.8 6.7 6.1 4.7 3.9 4.9 2.9 2.7 3.3 2.7 2.7 3.4 3.6 3.5 3.3 3.4 3.3 3.7 4.4 5.2 4.5 4.6 4.5 5.2 4.7 4.5 4.5 4.6 4.7 4.4 5.5 5.0 6.3 4.0 3.6 3.7 3.6 3.6 3.9 3.8 4.7 4.4 4.9 4.5 4.6 4.5 4.2 3.4 3.4 3.5 3.9
6.9 nan 6.2 6.2 5.3 5.0 4.9 3.0 3.3 3.5 4.0 2.6 2.8 2.8 3.3 3.3 3.4 3.5 4.5 4.5 5.5 5.3 4.7 5.1 5.1 4.8 4.8 5.4 5.0 6.5 6.7 6.2 5.6 4.0 4.2 4.0 4.9 4.2 4.3 3.9 3.9 4.0 4.0 3.9 4.1 4.4 4.6 4.3 3.9 3.8 3.6 3.3 3.4 3.5
nan 6.6 5.7 5.6 5.3 6.1 7.4 2.8 4.9 2.9 3.9 3.0 3.1 3.4 3.4 3.5 3.8 6.2 4.9 6.0 6.2 4.8 4.9 5.0 5.7 6.3 5.9 6.3 7.1 6.4 6.2 7.1 5.6 5.6 4.7 4.8 4.2 3.8 3.8 4.6 3.6 3.6 4.1 4.5 4.1 4.2 4.4 3.3 3.5 3.4 3.4 3.5 3.7 3.8
nan 7.1 4.8 4.5 5.7 5.0 2.9 3.5 5.0 5.0 3.5 3.4 3.8 4.4 4.2 5.0 4.3 5.0 6.0 6.5 6.6 4.6 5.1 6.6 4.4 5.3 5.9 7.9 7.0 7.3 6.7 6.3 6.5 6.0 5.9 5.9 5.1 4.9 4.5 5.1 3.7 3.8 4.5 4.6 4.0 3.8 3.9 3.5 3.1 3.7 3.6 3.5 3.4 3.9
7.1 6.4 4.0 8.7 3.9 4.3 3.9 3.5 4.3 4.5 5.0 4.4 5.5 5.2 5.9 5.6 7.2 7.5 7.6 8.0 7.0 6.6 6.5 5.6 6.1 5.6 6.3 6.2 6.7 7.7 9.1 7.8 7.8 8.2 7.6 6.8 5.8 5.4 5.6 5.0 5.5 5.3 4.5 3.5 4.0 3.7 3.8 3.7 3.6 3.6 3.8 3.6 4.2 4.0
8.0 3.7 7.7 3.8 4.6 4.5 5.3 5.7 5.7 4.9 4.9 5.0 4.6 4.8 3.9 4.9 6.5 8.6 9.2 7.9 6.7 7.6 5.7 5.8 6.4 6.7 7.9 7.0 7.2 8.4 8.4 7.5 6.6 8.5 9.1 8.6 8.5 6.3 5.9 6.2 6.3 6.2 5.5 4.0 4.1 3.8 3.9 3.8 3.8 3.9 3.8 3.6 3.2 3.7
8.1 4.7 4.3 3.6 3.7 4.1 4.5 3.6 3.9 4.3 5.7 6.0 5.5 5.0 5.1 7.0 7.1 8.7 8.5 7.6 8.5 7.9 6.7 6.5 6.6 7.3 8.0 7.8 7.3 7.1 6.6 6.3 7.5 8.9 7.7 8.9 9.3 9.5 7.3 6.1 7.4 7.2 6.5 4.8 3.8 3.5 3.6 3.7 3.7 3.9 3.9 3.6 3.5 3.7
5.2 4.7 7.0 3.7 4.0 3.2 4.8 4.7 5.4 5.7 4.9 5.4 6.1 6.7 6.2 6.6 9.1 8.8 8.8 8.0 7.4 6.2 6.1 6.0 5.9 6.9 7.3 7.7 7.6 7.1 5.6 5.8 5.7 6.6 6.4 6.5 7.1 7.6 7.8 7.3 7.1 3.0 6.1 4.9 4.2 4.2 4.0 3.7 3.7 3.6 3.8 4.0 4.4 3.8
5.5 3.8 4.0 8.1 6.1 4.7 6.3 5.9 5.6 5.3 4.4 4.4 5.2 7.5 7.6 9.0 8.3 8.9 9.4 8.6 6.3 6.3 6.8 6.7 7.1 5.4 6.0 5.6 5.9 5.9 5.9 5.8 5.5 6.7 5.9 7.0 6.1 6.2 6.5 6.1 5.8 5.3 5.5 5.5 3.0 3.7 4.5 4.5 4.2 4.1 3.4 4.0 3.9 4.0
5.9 3.6 5.0 6.2 8.6 7.4 6.8 6.2 6.0 6.1 6.6 6.5 6.0 7.6 8.5 9.4 9.4 7.5 8.0 7.6 7.3 6.1 5.5 5.7 5.8 5.4 5.6 6.0 6.4 6.0 5.2 4.8 5.3 5.8 6.1 6.6 6.8 6.5 6.0 5.1 4.9 4.8 4.8 4.4 5.4 6.7 3.5 4.8 3.8 4.6 4.9 5.2 4.9 5.2
3.7 3.8 4.6 4.8 6.8 5.8 5.9 5.0 5.1 5.5 5.1 5.1 5.1 5.4 6.6 8.0 8.2 8.1 8.3 7.6 7.3 5.3 5.1 5.3 5.3 4.9 5.5 6.4 5.6 5.9 6.8 5.5 6.5 6.5 6.2 5.9 6.4 5.6 5.1 5.0 4.8 4.6 4.5 4.8 4.8 5.9 6.8 6.5 5.6 5.2 5.7 5.5 6.1 6.3
4.5 4.3 6.7 7.4 6.4 5.4 5.4 4.7 4.8 4.9 5.0 5.4 5.6 5.5 5.9 6.4 7.8 8.4 8.4 6.9 6.3 5.9 3.3 6.3 5.7 7.1 6.7 6.6 5.6 5.7 3.2 7.3 7.4 7.5 6.3 6.7 6.1 5.9 5.8 5.8 4.9 4.6 4.7 4.8 5.2 5.6 5.9 6.4 7.0 6.7 6.5 6.3 6.4 6.8
4.7 4.8 5.4 5.9 5.5 5.5 5.8 5.1 5.3 5.5 5.9 6.2 6.1 6.4 6.2 6.9 8.6 8.2 9.0 7.3 6.5 6.5 7.0 6.3 6.2 5.8 6.6 6.4 6.8 6.8 4.2 7.3 5.3 3.0 3.0 3.0 3.0 3.6 6.5 5.9 5.4 5.8 6.0 6.0 5.9 6.2 6.3 6.9 8.0 7.6 8.1 8.3 7.9 7.4